Location: Writing-on-Stone Provincial Park
(49.0825°N, 111.6163°W)
Time: 02:47:09
(UTC-06:00)

Amateur Radio Satellites - All Passes

Search period start: 24 June 2017 02:17
Search period end: 25 June 2017 02:17
Location: Writing-on-Stone Provincial Park, 49.0825°N, 111.6163°W

Satellite Date Start Highest point End Downlink Frequencies (MHz)
Time Altitude Azimuth
BEESAT 24 Jun 02:17:17 02:20:53 22° 60° (ENE) 02:24:29 436.000
VELOX 1 24 Jun 02:24:30 02:26:49 14° 271° (W) 02:29:08 145.980
FO-29 24 Jun 02:36:06 02:38:29 12° 320° (NW) 02:40:54 435.910
BUGSAT 1 24 Jun 02:36:19 02:40:35 78° 288° (WNW) 02:44:50 437.445
Oscar 19 24 Jun 02:36:35 02:41:28 41° 98° (E) 02:46:17 437.125/150
EO-79 24 Jun 02:38:50 02:42:13 23° 297° (WNW) 02:45:35 145.935-145.965
50 SAT 24 Jun 02:40:31 02:41:47 12° 270° (W) 02:43:02 437.505
NO-84 24 Jun 02:41:19 02:45:20 37° 358° (N) 02:49:26 435.350 FM
DX 1 24 Jun 02:48:48 02:52:01 20° 268° (W) 02:55:15 434.975-435.025
DUCHIFAT 1 24 Jun 02:55:16 02:58:21 20° 299° (WNW) 03:01:26 145.980
RS-15 24 Jun 02:56:29 03:07:48 38° 0° (N) 03:18:54 29.354- 29.394
NANOSAT C BR1 24 Jun 03:03:11 03:05:46 16° 301° (WNW) 03:08:20 145.865
UKube-1 24 Jun 03:09:59 03:12:55 18° 269° (W) 03:15:53 .
Gurwin Techsat 1B 24 Jun 03:15:24 03:20:40 58° 101° (E) 03:25:54 435.225
MOZHAYETS 4 24 Jun 03:39:54 03:44:31 68° 73° (ENE) 03:49:09
ITUPSAT 1 24 Jun 03:42:12 03:47:01 77° 256° (WSW) 03:51:52 437.325
KKS-1 24 Jun 03:51:53 03:54:37 16° 58° (ENE) 03:57:20 437.445
BEESAT 24 Jun 03:53:33 03:58:16 59° 259° (W) 04:03:02 436.000
BEESAT 3 24 Jun 04:00:17 04:01:37 11° 18° (NNE) 04:02:57 437.485
BUGSAT 1 24 Jun 04:13:57 04:15:12 11° 305° (NW) 04:16:26 437.445
Oscar 19 24 Jun 04:16:10 04:20:40 32° 297° (WNW) 04:25:10 437.125/150
CUBESAT XI-V 24 Jun 04:16:39 04:20:50 34° 66° (ENE) 04:25:01 437.345
AO-7 24 Jun 04:18:58 04:26:34 36° 96° (E) 04:34:06 .
NO-84 24 Jun 04:19:16 04:23:34 53° 19° (NNE) 04:27:51 435.350 FM
STARS 24 Jun 04:26:37 04:29:17 16° 58° (ENE) 04:31:58 437.465
AO-85 24 Jun 04:34:01 04:37:04 20° 33° (NNE) 04:40:14 145.980
ITAMSAT 1 24 Jun 04:49:12 04:54:23 55° 101° (E) 04:59:30 435.822/435.867
BEESAT 2 24 Jun 04:54:54 04:56:46 13° 21° (NNE) 04:58:38 435.950
Gurwin Techsat 1B 24 Jun 04:55:57 05:00:16 25° 300° (WNW) 05:04:33 435.225
RS-15 24 Jun 05:11:32 05:23:37 55° 33° (NNE) 05:35:10 29.354- 29.394
MOZHAYETS 4 24 Jun 05:19:15 05:22:08 16° 271° (W) 05:25:04
ITUPSAT 1 24 Jun 05:24:47 05:25:40 10° 275° (W) 05:26:33 437.325
KKS-1 24 Jun 05:26:13 05:30:38 73° 258° (WSW) 05:35:06 437.445
BEESAT 3 24 Jun 05:36:41 05:40:24 33° 40° (NE) 05:44:01 437.485
STRAND 1 24 Jun 05:51:21 05:52:05 10° 49° (NE) 05:52:48 437.568
CUBESAT XI-V 24 Jun 05:54:04 05:58:13 32° 265° (W) 06:02:22 437.345
NO-84 24 Jun 05:56:59 06:01:14 50° 219° (SW) 06:05:23 435.350 FM
STARS 24 Jun 06:00:43 06:05:06 73° 257° (WSW) 06:09:32 437.465
AO-7 24 Jun 06:11:32 06:19:47 64° 297° (WNW) 06:28:01 .
AO-85 24 Jun 06:13:51 06:17:55 79° 233° (SW) 06:22:12 145.980
LilacSat-2 24 Jun 06:27:10 06:28:37 12° 88° (E) 06:30:04 437.200
ITAMSAT 1 24 Jun 06:29:15 06:33:31 26° 300° (WNW) 06:37:46 435.822/435.867
XW-2B 24 Jun 06:29:54 06:31:21 12° 88° (E) 06:32:47 145.730 - 145.750
BEESAT 2 24 Jun 06:31:41 06:35:35 40° 43° (NE) 06:39:26 435.950
XW-2C 24 Jun 06:44:22 06:46:56 17° 91° (E) 06:49:30 145.795 - 145.815
DOVE 4 24 Jun 06:46:38 06:51:16 45° 98° (E) 06:56:07 437.250
KAITUO 1B 24 Jun 07:02:25 07:05:18 21° 93° (E) 07:08:09 145.475/437.950
YUBILEINY 24 Jun 07:12:48 07:16:03 12° 41° (NE) 07:19:17 435.215
BEESAT 3 24 Jun 07:14:16 07:18:01 37° 240° (WSW) 07:21:40 437.485
O/OREOS (USA 219) 24 Jun 07:19:02 07:23:03 31° 53° (NE) 07:27:03 437.305
CUTE-I 24 Jun 07:20:15 07:25:16 38° 97° (E) 07:30:15 437.470
RS-15 24 Jun 07:24:42 07:36:44 67° 241° (WSW) 07:48:09 29.354- 29.394
STRAND 1 24 Jun 07:25:10 07:30:09 53° 69° (ENE) 07:35:11 437.568
NUDT-PHONESAT 24 Jun 07:39:58 07:43:38 53° 100° (E) 07:47:14 437.300
FO-29 24 Jun 07:41:37 07:42:32 10° 37° (NE) 07:43:27 435.910
XW-2F 24 Jun 07:50:23 07:54:11 89° 104° (ESE) 07:57:55 145.980 - 146.000
XW-2D 24 Jun 07:53:14 07:57:02 80° 285° (WNW) 08:00:47 145.860 - 145.880
AO-85 24 Jun 07:56:47 07:57:40 11° 250° (WSW) 07:58:35 145.980
LilacSat-2 24 Jun 07:59:33 08:03:21 66° 286° (WNW) 08:07:05 437.200
HO-68 24 Jun 08:01:14 08:07:28 30° 93° (E) 08:13:37 435.675
XW-2B 24 Jun 08:02:13 08:05:59 65° 286° (WNW) 08:09:42 145.730 - 145.750
SEEDS 24 Jun 08:03:25 08:05:50 15° 89° (E) 08:08:13 437.485
AO-7 24 Jun 08:05:25 08:11:03 21° 320° (NW) 08:16:42 .
BEESAT 2 24 Jun 08:09:41 08:13:14 29° 242° (WSW) 08:16:43 435.950
CUBEBUG 2 24 Jun 08:12:14 08:15:24 17° 88° (E) 08:18:30 437.445
M-CUBED/EXP-1 PRIME 24 Jun 08:15:45 08:16:24 10° 53° (NE) 08:17:03 437.505
CUTE 1.7 + AOD 2 24 Jun 08:16:51 08:20:36 30° 95° (E) 08:24:18 437.475
XW-2C 24 Jun 08:17:45 08:21:22 43° 289° (WNW) 08:24:56 145.795 - 145.815
DOVE 4 24 Jun 08:24:44 08:28:47 28° 295° (WNW) 08:33:00 437.250
KAITUO 1B 24 Jun 08:36:00 08:39:24 34° 291° (WNW) 08:42:46 145.475/437.950
UNISAT 6 24 Jun 08:44:15 08:45:46 11° 54° (NE) 08:47:17 437.425
ZACube-1 24 Jun 08:48:24 08:50:37 13° 87° (E) 08:52:49 437.345
UWE-3 24 Jun 08:48:51 08:52:34 23° 91° (E) 08:56:13 435.000/436.395/437.385
XW-2A 24 Jun 08:54:22 08:57:45 54° 100° (E) 09:01:05 145.665 - 145.685
AAUSAT CUBESAT 2 24 Jun 08:58:19 09:01:47 26° 94° (E) 09:05:14 437.432
O/OREOS (USA 219) 24 Jun 08:58:24 09:02:30 36° 253° (WSW) 09:06:35 437.305
CUTE-I 24 Jun 09:00:23 09:05:17 37° 296° (WNW) 09:10:10 437.470
STRAND 1 24 Jun 09:05:30 09:09:38 24° 268° (W) 09:13:49 437.568
YUBILEINY 24 Jun 09:07:23 09:15:49 45° 69° (ENE) 09:24:10 435.215
Tancredo 1 24 Jun 09:09:00 09:10:41 14° 138° (SE) 09:12:24 437.200
NUDT-PHONESAT 24 Jun 09:14:56 09:17:07 15° 299° (WNW) 09:19:19 437.300
FO-29 24 Jun 09:19:51 09:25:32 39° 61° (ENE) 09:31:55 435.910
XW-2F 24 Jun 09:27:00 09:27:40 10° 302° (WNW) 09:28:21 145.980 - 146.000
TIGRISAT 24 Jun 09:36:09 09:40:05 28° 64° (ENE) 09:44:05 435.000
SEEDS 24 Jun 09:37:49 09:41:56 61° 287° (WNW) 09:46:02 437.485
RS-15 24 Jun 09:39:26 09:46:38 19° 265° (W) 09:53:40 29.354- 29.394
M-CUBED/EXP-1 PRIME 24 Jun 09:47:07 09:50:24 73° 251° (WSW) 09:53:41 437.505
CUBEBUG 2 24 Jun 09:47:45 09:52:29 65° 287° (WNW) 09:57:05 437.445
HO-68 24 Jun 09:48:34 09:55:41 65° 293° (WNW) 10:02:44 435.675
AO-73 24 Jun 09:48:54 09:53:14 45° 98° (E) 09:57:26 145.935
CUTE 1.7 + AOD 2 24 Jun 09:52:43 09:56:24 30° 294° (WNW) 10:00:05 437.475
PRISM 24 Jun 09:55:05 09:58:55 43° 69° (ENE) 10:02:47 437.425
UNISAT 6 24 Jun 10:17:00 10:21:35 69° 73° (ENE) 10:26:17 437.425
Oscar 11 24 Jun 10:17:52 10:22:11 68° 101° (E) 10:26:28 .
ZACube-1 24 Jun 10:22:57 10:27:29 77° 286° (WNW) 10:31:54 437.345
UWE-3 24 Jun 10:24:48 10:29:15 46° 291° (WNW) 10:33:35 435.000/436.395/437.385
EO-88 24 Jun 10:25:27 10:27:37 15° 90° (E) 10:29:48 145.990 - 145.960
XW-2A 24 Jun 10:28:26 10:30:04 13° 299° (WNW) 10:31:42 145.665 - 145.685
AAUSAT CUBESAT 2 24 Jun 10:33:35 10:37:18 34° 292° (WNW) 10:41:00 437.432
DELFI C3 24 Jun 10:38:14 10:41:46 31° 96° (E) 10:45:17 145.870
Tancredo 1 24 Jun 10:42:49 10:45:51 70° 156° (SSE) 10:48:53 437.200
ISS 24 Jun 10:44:46 10:47:56 45° 150° (SSE) 10:51:05 437.550
NANOSAT C BR1 24 Jun 10:49:20 10:50:59 12° 56° (NE) 10:52:38 145.865
YUBILEINY 24 Jun 11:04:22 11:12:45 50° 272° (W) 11:21:05 435.215
FO-29 24 Jun 11:04:35 11:10:27 47° 264° (W) 11:17:08 435.910
AIST 2D 24 Jun 11:08:22 11:11:26 28° 68° (ENE) 11:14:32 435.315
TIGRISAT 24 Jun 11:12:16 11:16:36 40° 263° (W) 11:21:03 435.000
POLYITAN 1 24 Jun 11:23:25 11:26:58 26° 64° (ENE) 11:30:32 437.675
AO-73 24 Jun 11:25:37 11:29:12 24° 297° (WNW) 11:32:42 145.935
CUBEBUG 2 24 Jun 11:26:51 11:28:09 11° 307° (NW) 11:29:28 437.445
PRISM 24 Jun 11:31:22 11:34:24 20° 267° (W) 11:37:27 437.425
QB50P2 24 Jun 11:33:47 11:37:37 34° 67° (ENE) 11:41:31 145.880/145.840
HO-68 24 Jun 11:37:42 11:42:07 18° 315° (NW) 11:46:32 435.675
Oscar 11 24 Jun 11:55:10 11:57:49 16° 301° (WNW) 12:00:28 .
UNISAT 6 24 Jun 11:55:56 11:58:48 16° 272° (W) 12:01:42 437.425
BUGSAT 1 24 Jun 11:56:09 11:58:43 16° 59° (ENE) 12:01:18 437.445
EO-88 24 Jun 11:58:03 12:01:35 47° 288° (WNW) 12:05:05 145.990 - 145.960
EO-79 24 Jun 11:58:26 12:02:35 54° 71° (ENE) 12:06:47 145.935-145.965
ZACube-1 24 Jun 12:01:20 12:02:58 12° 305° (NW) 12:04:36 437.345
DELFI C3 24 Jun 12:13:09 12:16:28 26° 294° (WNW) 12:19:46 145.870
DUCHIFAT 1 24 Jun 12:14:02 12:18:14 64° 72° (ENE) 12:22:27 145.980
Tancredo 1 24 Jun 12:18:33 12:21:32 50° 355° (N) 12:24:32 437.200
Oscar 19 24 Jun 12:20:45 12:23:53 16° 55° (NE) 12:27:01 437.125/150
ISS 24 Jun 12:21:07 12:24:23 60° 349° (N) 12:27:40 437.550
NANOSAT C BR1 24 Jun 12:21:45 12:26:00 85° 75° (ENE) 12:30:17 145.865
ESTCUBE 1 24 Jun 12:24:03 12:28:02 30° 95° (E) 12:32:00 437.505/2401.250
LO-87 24 Jun 12:25:03 12:28:37 50° 99° (E) 12:32:10 145.935 - 145.965
VELOX 1 24 Jun 12:34:41 12:34:48 10° 86° (E) 12:34:54 145.980
AIST 2D 24 Jun 12:41:44 12:44:38 23° 266° (W) 12:47:34 435.315
POLYITAN 1 24 Jun 12:58:37 13:02:35 38° 263° (W) 13:06:38 437.675
Gurwin Techsat 1B 24 Jun 13:02:19 13:06:28 24° 59° (ENE) 13:10:36 435.225
SPROUT 24 Jun 13:03:04 13:06:26 22° 92° (E) 13:09:47 437.525
YUBILEINY 24 Jun 13:06:31 13:07:13 10° 295° (WNW) 13:07:54 435.215
QB50P2 24 Jun 13:09:48 13:13:28 28° 265° (W) 13:17:10 145.880/145.840
PCSat 24 Jun 13:19:27 13:24:44 55° 118° (ESE) 13:30:03 145.827
BUGSAT 1 24 Jun 13:29:28 13:33:35 66° 258° (WSW) 13:37:47 437.445
AO-7 24 Jun 13:33:02 13:38:55 22° 41° (NE) 13:44:48 .
EO-79 24 Jun 13:35:48 13:38:41 18° 270° (W) 13:41:35 145.935-145.965
DUCHIFAT 1 24 Jun 13:51:54 13:54:20 15° 271° (W) 13:56:47 145.980
Tancredo 1 24 Jun 13:54:18 13:57:22 71° 15° (NNE) 14:00:25 437.200
50 SAT 24 Jun 13:56:33 13:59:35 29° 97° (E) 14:02:36 437.505
Oscar 19 24 Jun 13:57:21 14:02:31 89° 68° (ENE) 14:07:42 437.125/150
ISS 24 Jun 13:57:51 14:01:07 59° 10° (N) 14:04:24 437.550
LO-87 24 Jun 13:59:29 14:01:42 16° 298° (WNW) 14:03:55 145.935 - 145.965
ESTCUBE 1 24 Jun 14:00:49 14:04:51 34° 294° (WNW) 14:08:52 437.505/2401.250
NANOSAT C BR1 24 Jun 14:01:01 14:02:20 11° 273° (W) 14:03:40 145.865
VELOX 1 24 Jun 14:07:31 14:11:58 82° 104° (ESE) 14:16:24 145.980
DX 1 24 Jun 14:31:15 14:35:31 50° 100° (E) 14:39:46 434.975-435.025
ITAMSAT 1 24 Jun 14:33:33 14:37:28 22° 58° (ENE) 14:41:27 435.822/435.867
SPROUT 24 Jun 14:38:26 14:42:33 44° 291° (WNW) 14:46:38 437.525
Gurwin Techsat 1B 24 Jun 14:40:44 14:45:59 63° 258° (WSW) 14:51:18 435.225
UKube-1 24 Jun 14:50:58 14:55:14 55° 101° (E) 14:59:28 .
SO-50 24 Jun 14:57:14 15:00:51 24° 115° (ESE) 15:04:28 436.795
PCSat 24 Jun 15:03:31 15:08:25 34° 319° (NW) 15:13:21 145.827
AO-7 24 Jun 15:22:05 15:30:18 69° 64° (ENE) 15:38:37 .
50 SAT 24 Jun 15:29:37 15:32:15 21° 294° (WNW) 15:34:51 437.505
Tancredo 1 24 Jun 15:30:05 15:32:48 29° 214° (SW) 15:35:29 437.200
MOZHAYETS 4 24 Jun 15:32:48 15:34:31 12° 86° (E) 15:36:14
ISS 24 Jun 15:34:24 15:37:37 49° 209° (SSW) 15:40:49 437.550
ITUPSAT 1 24 Jun 15:39:14 15:42:49 20° 91° (E) 15:46:22 437.325
Oscar 19 24 Jun 15:39:54 15:42:34 14° 273° (W) 15:45:14 437.125/150
VELOX 1 24 Jun 15:45:24 15:47:49 15° 303° (WNW) 15:50:15 145.980
BEESAT 24 Jun 15:49:46 15:53:46 26° 94° (E) 15:57:43 436.000
DX 1 24 Jun 16:08:06 16:11:24 21° 299° (WNW) 16:14:41 434.975-435.025
ITAMSAT 1 24 Jun 16:11:19 16:16:29 66° 257° (WSW) 16:21:43 435.822/435.867
UKube-1 24 Jun 16:27:47 16:30:53 19° 300° (WNW) 16:33:58 .
SO-50 24 Jun 16:36:32 16:41:00 57° 314° (NW) 16:45:29 436.795
PCSat 24 Jun 16:50:47 16:53:32 14° 344° (NNW) 16:56:16 145.827
HO-68 24 Jun 16:54:03 16:54:55 10° 35° (NE) 16:55:49 435.675
XW-2D 24 Jun 17:07:28 17:08:07 10° 58° (ENE) 17:08:45 145.860 - 145.880
MOZHAYETS 4 24 Jun 17:07:44 17:12:22 89° 295° (WNW) 17:16:57
CUTE-I 24 Jun 17:08:43 17:12:05 17° 54° (NE) 17:15:27 437.470
LilacSat-2 24 Jun 17:13:14 17:14:53 12° 59° (ENE) 17:16:32 437.200
KKS-1 24 Jun 17:13:59 17:16:48 16° 90° (E) 17:19:36 437.445
XW-2B 24 Jun 17:15:26 17:16:59 12° 59° (ENE) 17:18:33 145.730 - 145.750
ITUPSAT 1 24 Jun 17:16:17 17:21:00 57° 290° (WNW) 17:25:41 437.325
AO-7 24 Jun 17:16:25 17:23:40 33° 265° (W) 17:31:02 .
BEESAT 24 Jun 17:27:09 17:31:44 45° 292° (WNW) 17:36:16 436.000
XW-2C 24 Jun 17:29:45 17:32:16 17° 62° (ENE) 17:34:47 145.795 - 145.815
CUBESAT XI-V 24 Jun 17:45:40 17:50:07 46° 98° (E) 17:54:32 437.345
KAITUO 1B 24 Jun 17:46:26 17:49:10 19° 64° (ENE) 17:51:55 145.475/437.950
STARS 24 Jun 17:47:01 17:49:40 15° 90° (E) 17:52:18 437.465
DOVE 4 24 Jun 17:56:24 18:00:31 64° 72° (ENE) 18:04:48 437.250
SO-50 24 Jun 18:19:24 18:22:24 17° 336° (NNW) 18:25:25 436.795
NUDT-PHONESAT 24 Jun 18:22:43 18:26:18 44° 71° (ENE) 18:29:54 437.300
HO-68 24 Jun 18:34:14 18:40:38 36° 58° (ENE) 18:47:03 435.675
XW-2F 24 Jun 18:34:36 18:38:25 75° 76° (ENE) 18:42:15 145.980 - 146.000
PCSat 24 Jun 18:37:09 18:39:25 12° 11° (N) 18:41:41 145.827
XW-2D 24 Jun 18:37:48 18:41:39 87° 76° (ENE) 18:45:30 145.860 - 145.880
LilacSat-2 24 Jun 18:44:44 18:48:37 77° 258° (WSW) 18:52:30 437.200
CUTE-I 24 Jun 18:46:04 18:51:24 89° 72° (ENE) 18:56:48 437.470
MOZHAYETS 4 24 Jun 18:46:29 18:48:51 14° 304° (NW) 18:51:11
XW-2B 24 Jun 18:46:46 18:50:37 77° 257° (WSW) 18:54:28 145.730 - 145.750
KKS-1 24 Jun 18:49:21 18:53:48 65° 288° (WNW) 18:58:14 437.445
SEEDS 24 Jun 18:58:50 19:01:45 19° 62° (ENE) 19:04:40 437.485
XW-2C 24 Jun 19:02:21 19:06:07 50° 261° (W) 19:09:52 145.795 - 145.815
CUTE 1.7 + AOD 2 24 Jun 19:13:05 19:16:58 36° 68° (ENE) 19:20:52 437.475
CUBEBUG 2 24 Jun 19:13:48 19:17:28 24° 62° (ENE) 19:21:14 437.445
KAITUO 1B 24 Jun 19:19:19 19:22:56 41° 262° (W) 19:26:32 145.475/437.950
STARS 24 Jun 19:22:02 19:26:28 67° 288° (WNW) 19:30:52 437.465
CUBESAT XI-V 24 Jun 19:23:34 19:27:15 24° 297° (WNW) 19:30:56 437.345
XW-2A 24 Jun 19:29:16 19:32:25 35° 70° (ENE) 19:35:37 145.665 - 145.685
STRAND 1 24 Jun 19:33:10 19:35:34 13° 86° (E) 19:37:58 437.568
DOVE 4 24 Jun 19:36:29 19:38:46 14° 273° (W) 19:41:04 437.250
Oscar 11 24 Jun 19:43:14 19:45:00 12° 57° (ENE) 19:46:46 .
ZACube-1 24 Jun 19:47:28 19:50:42 19° 60° (ENE) 19:53:56 437.345
RS-15 24 Jun 19:47:45 19:53:18 14° 91° (E) 19:58:53 29.354- 29.394
UWE-3 24 Jun 19:49:12 19:53:15 31° 65° (ENE) 19:57:22 435.000/436.395/437.385
AAUSAT CUBESAT 2 24 Jun 19:52:06 19:55:40 29° 67° (ENE) 19:59:15 437.432
NUDT-PHONESAT 24 Jun 19:57:53 20:00:25 17° 269° (W) 20:02:58 437.300
SO-50 24 Jun 20:03:15 20:04:41 11° 2° (N) 20:06:08 436.795
XW-2F 24 Jun 20:12:07 20:13:03 11° 273° (W) 20:13:58 145.980 - 146.000
PCSat 24 Jun 20:20:11 20:24:46 27° 36° (NE) 20:29:20 145.827
HO-68 24 Jun 20:21:01 20:28:05 58° 258° (WSW) 20:35:12 435.675
KKS-1 24 Jun 20:28:52 20:29:29 10° 307° (NW) 20:30:07 437.445
CUTE-I 24 Jun 20:29:15 20:32:12 15° 273° (W) 20:35:10 437.470
SEEDS 24 Jun 20:32:58 20:37:05 54° 260° (W) 20:41:13 437.485
AO-73 24 Jun 20:47:34 20:52:01 57° 72° (ENE) 20:56:32 145.935
CUBEBUG 2 24 Jun 20:49:18 20:53:46 50° 261° (W) 20:58:23 437.445
CUTE 1.7 + AOD 2 24 Jun 20:49:18 20:52:53 26° 266° (W) 20:56:28 437.475
STARS 24 Jun 21:01:07 21:01:58 10° 307° (NW) 21:02:49 437.465
XW-2A 24 Jun 21:02:52 21:05:18 18° 268° (W) 21:07:45 145.665 - 145.685
EO-88 24 Jun 21:07:37 21:09:31 14° 61° (ENE) 21:11:25 145.990 - 145.960
BEESAT 3 24 Jun 21:09:19 21:11:04 13° 110° (ESE) 21:12:50 437.485
STRAND 1 24 Jun 21:10:19 21:15:32 86° 105° (ESE) 21:20:42 437.568
Oscar 11 24 Jun 21:16:06 21:20:27 85° 72° (ENE) 21:24:49 .
ZACube-1 24 Jun 21:22:00 21:26:31 63° 259° (W) 21:31:07 437.345
UWE-3 24 Jun 21:25:22 21:29:36 36° 264° (W) 21:33:57 435.000/436.395/437.385
DELFI C3 24 Jun 21:27:20 21:30:49 31° 68° (ENE) 21:34:18 145.870
AAUSAT CUBESAT 2 24 Jun 21:27:26 21:31:05 30° 264° (W) 21:34:45 437.432
O/OREOS (USA 219) 24 Jun 21:37:07 21:39:46 15° 99° (E) 21:42:25 437.305
SO-50 24 Jun 21:43:40 21:46:54 19° 26° (NNE) 21:50:10 436.795
RS-15 24 Jun 21:51:05 22:02:49 57° 115° (ESE) 22:14:43 29.354- 29.394
PCSat 24 Jun 22:03:18 22:08:46 78° 237° (WSW) 22:14:10 145.827
BEESAT 2 24 Jun 22:05:08 22:07:46 17° 113° (ESE) 22:10:25 435.950
UNISAT 6 24 Jun 22:06:45 22:08:24 12° 85° (E) 22:10:03 437.425
FO-29 24 Jun 22:08:39 22:15:13 29° 89° (E) 22:21:45 435.910
AO-85 24 Jun 22:11:59 22:16:00 80° 129° (SE) 22:19:57 145.980
YUBILEINY 24 Jun 22:13:37 22:21:44 44° 86° (E) 22:29:54 435.215
HO-68 24 Jun 22:15:25 22:17:23 11° 279° (W) 22:19:22 435.675
AO-73 24 Jun 22:25:24 22:28:37 19° 270° (W) 22:31:52 145.935
EO-88 24 Jun 22:39:07 22:42:45 61° 260° (W) 22:46:24 145.990 - 145.960
BEESAT 3 24 Jun 22:44:02 22:48:02 85° 313° (NW) 22:52:06 437.485
STRAND 1 24 Jun 22:50:44 22:54:04 17° 304° (NW) 22:57:21 437.568
NO-84 24 Jun 22:53:40 22:57:12 31° 135° (SE) 23:00:58 435.350 FM
M-CUBED/EXP-1 PRIME 24 Jun 22:54:56 22:58:20 36° 105° (ESE) 23:01:56 437.505
Oscar 11 24 Jun 22:55:40 22:57:12 12° 274° (W) 22:58:43 .
TIGRISAT 24 Jun 22:59:28 23:03:44 33° 95° (E) 23:07:54 435.000
DELFI C3 24 Jun 23:02:20 23:05:37 25° 266° (W) 23:08:56 145.870
LO-87 24 Jun 23:04:50 23:08:09 37° 70° (ENE) 23:11:29 145.935 - 145.965
PRISM 24 Jun 23:07:10 23:11:01 39° 98° (E) 23:14:53 437.425
O/OREOS (USA 219) 24 Jun 23:14:05 23:18:37 71° 298° (WNW) 23:23:09 437.305
SO-50 24 Jun 23:23:38 23:28:10 70° 48° (NE) 23:32:41 436.795
ESTCUBE 1 24 Jun 23:27:07 23:31:25 45° 69° (ENE) 23:35:43 437.505/2401.250
VELOX 1 24 Jun 23:34:03 23:36:49 17° 59° (ENE) 23:39:35 145.980
BEESAT 2 24 Jun 23:41:05 23:45:04 64° 311° (NW) 23:49:08 435.950
UNISAT 6 24 Jun 23:41:07 23:45:50 87° 101° (E) 23:50:28 437.425
PCSat 24 Jun 23:48:41 23:51:15 14° 257° (WSW) 23:53:50 145.827
FO-29 24 Jun 23:53:05 00:00:50 76° 289° (WNW) 00:08:40 435.910
AO-85 24 Jun 23:53:57 23:56:52 19° 328° (NNW) 23:59:46 145.980
DX 1 24 Jun 23:58:06 23:59:14 11° 54° (NE) 00:00:23 434.975-435.025
SPROUT 25 Jun 00:00:03 00:03:42 28° 65° (ENE) 00:07:22 437.525
AIST 2D 25 Jun 00:02:34 00:05:11 19° 93° (E) 00:07:47 435.315
RS-15 25 Jun 00:03:18 00:15:28 62° 322° (NW) 00:27:43 29.354- 29.394
NANOSAT C BR1 25 Jun 00:04:34 00:05:24 10° 86° (E) 00:06:13 145.865
YUBILEINY 25 Jun 00:09:55 00:18:26 51° 289° (WNW) 00:27:03 435.215
UKube-1 25 Jun 00:16:31 00:17:56 11° 55° (NE) 00:19:22 .
BEESAT 3 25 Jun 00:23:20 00:26:13 18° 330° (NNW) 00:29:06 437.485
M-CUBED/EXP-1 PRIME 25 Jun 00:29:47 00:32:40 23° 300° (WNW) 00:35:40 437.505
NO-84 25 Jun 00:30:28 00:34:34 67° 335° (NNW) 00:38:55 435.350 FM
50 SAT 25 Jun 00:32:26 00:35:05 22° 66° (ENE) 00:37:46 437.505
TIGRISAT 25 Jun 00:36:11 00:40:24 33° 294° (WNW) 00:44:30 435.000
LO-87 25 Jun 00:39:14 00:41:44 18° 268° (W) 00:44:16 145.935 - 145.965
POLYITAN 1 25 Jun 00:39:16 00:42:53 26° 94° (E) 00:46:29 437.675
PRISM 25 Jun 00:42:51 00:46:07 24° 296° (WNW) 00:49:25 437.425
QB50P2 25 Jun 00:49:49 00:53:48 35° 97° (E) 00:57:43 145.880/145.840
O/OREOS (USA 219) 25 Jun 00:56:33 00:58:53 14° 319° (NW) 01:01:13 437.305
ESTCUBE 1 25 Jun 01:04:53 01:08:26 23° 267° (W) 01:12:00 437.505/2401.250
SO-50 25 Jun 01:04:59 01:08:10 19° 247° (WSW) 01:11:20 436.795
BUGSAT 1 25 Jun 01:08:19 01:10:39 14° 89° (E) 01:12:58 437.445
VELOX 1 25 Jun 01:08:25 01:12:47 69° 258° (WSW) 01:17:11 145.980
EO-79 25 Jun 01:14:26 01:18:42 58° 101° (E) 01:22:54 145.935-145.965
UNISAT 6 25 Jun 01:19:15 01:21:53 15° 303° (WNW) 01:24:28 437.425
BEESAT 2 25 Jun 01:21:03 01:23:36 16° 333° (NNW) 01:26:11 435.950
DUCHIFAT 1 25 Jun 01:29:20 01:33:36 67° 102° (ESE) 01:37:49 145.980
DX 1 25 Jun 01:30:20 01:34:38 74° 74° (ENE) 01:38:59 434.975-435.025
AIST 2D 25 Jun 01:35:18 01:38:29 32° 291° (WNW) 01:41:39 435.315
SPROUT 25 Jun 01:35:35 01:39:30 35° 263° (W) 01:43:28 437.525
NANOSAT C BR1 25 Jun 01:37:27 01:41:45 89° 79° (ENE) 01:46:01 145.865
FO-29 25 Jun 01:39:12 01:44:45 22° 309° (NW) 01:50:24 435.910
UKube-1 25 Jun 01:48:57 01:53:14 79° 73° (ENE) 01:57:33 .
50 SAT 25 Jun 02:04:50 02:07:46 27° 263° (W) 02:10:44 437.505
Oscar 19 25 Jun 02:05:19 02:09:22 23° 92° (E) 02:13:22 437.125/150
NO-84 25 Jun 02:08:42 02:12:42 37° 356° (N) 02:16:49 435.350 FM
